Wind_Speed
9 9 9 9 10 10 8 8 8 9 9 9 9 9 9 8 7 7 6 6 6 7 7 6 6 6 7 8 9 9 10 11 11 11 11 11 10 10 9 9 9 8 7 7 7 7 6 6 7
8 8 8 9 10 8 7 7 8 8 8 8 8 8 7 7 7 6 5 5 6 6 6 6 6 7 7 8 8 9 10 11 11 11 11 10 10 9 9 8 8 7 7 6 6 6 6 6 6
7 7 7 8 8 6 4 5 6 7 7 7 7 7 7 7 6 5 4 5 5 5 6 6 6 7 7 8 8 9 10 11 11 11 10 10 9 9 8 8 7 7 7 6 6 6 6 5 5
6 5 6 7 6 4 4 4 5 6 6 6 6 6 6 6 5 4 4 4 5 5 6 6 6 7 7 8 8 9 10 10 10 10 10 9 9 8 8 7 7 7 7 6 6 5 5 5 5
4 4 5 4 3 3 3 3 4 5 5 5 5 5 5 4 4 4 3 3 4 5 5 6 6 7 7 8 8 9 9 10 10 10 9 9 8 8 7 7 6 6 6 6 5 5 5 4 4
3 3 3 1 1 1 1 2 3 4 3 4 4 4 4 4 4 3 2 2 3 4 4 5 6 7 8 8 8 9 9 10 9 9 8 8 8 7 6 6 6 5 5 5 5 4 4 3 3
3 2 1 0 1 1 1 2 3 3 3 3 4 3 3 3 4 3 2 2 2 3 4 5 6 7 8 8 8 8 9 9 9 9 8 7 7 6 6 5 5 4 4 4 4 4 3 3 3
3 2 1 2 2 2 2 2 2 2 3 3 3 3 2 2 3 3 2 2 2 2 3 5 7 7 8 9 8 8 9 9 9 9 8 7 6 6 5 5 4 4 4 4 4 3 3 3 3
4 3 3 3 3 3 3 3 3 3 3 3 3 3 2 1 1 1 1 0 0 2 3 5 7 7 8 9 9 9 9 9 9 9 8 7 6 5 5 4 4 4 4 3 3 3 3 3 3
6 5 5 4 4 4 4 4 3 4 4 4 4 3 2 2 2 2 2 1 2 2 4 5 7 8 9 10 10 10 10 9 9 9 8 6 6 5 4 4 4 4 3 3 3 3 3 2 2
8 7 6 5 5 5 5 5 4 4 4 5 5 5 4 4 4 4 3 3 3 4 5 6 7 9 10 11 11 11 11 10 10 9 8 7 5 5 4 3 3 3 3 3 3 3 3 2 2
9 8 8 7 6 6 6 6 6 5 5 5 6 6 6 6 5 5 5 4 4 5 6 6 8 9 11 11 12 12 11 10 10 10 9 8 6 5 4 4 3 3 3 3 2 2 2 2 2
11 10 10 9 8 8 8 8 7 6 6 6 7 7 7 7 8 8 6 6 5 6 6 7 9 10 11 11 12 13 13 11 11 11 9 9 8 6 5 4 4 3 3 3 2 2 2 1 1
12 11 11 11 10 9 8 8 8 8 8 8 7 8 8 9 9 8 8 8 7 7 7 9 10 11 12 12 13 13 13 12 12 12 10 10 9 8 6 5 4 4 4 4 3 2 2 1 1
13 12 12 12 11 10 9 9 9 9 9 9 8 9 9 9 8 8 9 9 9 9 8 9 11 12 12 13 13 13 13 13 12 12 11 11 10 10 8 6 6 5 5 5 4 3 2 1 1
13 13 13 13 13 11 9 10 11 10 10 10 9 10 10 9 9 10 10 9 10 10 10 10 12 13 13 14 14 14 14 14 13 13 12 12 12 11 10 8 7 7 6 5 5 4 3 2 1
15 14 15 15 13 11 10 11 11 11 10 10 10 10 10 10 10 10 10 10 10 10 11 11 12 13 14 15 15 14 15 15 14 14 15 14 14 13 12 10 9 8 7 6 6 5 4 4 3
15 15 15 15 14 12 11 11 11 11 11 10 10 10 11 10 10 10 10 11 10 11 12 12 12 13 14 14 15 15 15 16 16 16 16 16 16 14 14 12 11 9 8 8 7 6 6 5 5
17 16 16 16 14 12 12 12 11 11 11 11 11 11 11 11 10 10 10 11 10 10 11 12 12 13 14 15 16 17 17 17 17 17 16 16 17 16 15 14 13 11 10 9 8 7 7 6 6
17 17 17 17 15 14 13 13 12 12 11 11 11 11 11 11 10 10 10 11 11 11 12 12 12 13 14 15 16 17 18 18 18 18 17 17 17 16 16 15 14 13 12 10 10 9 8 8 7
18 18 18 17 15 15 14 13 13 12 11 12 12 12 11 11 11 11 11 11 11 12 12 12 12 13 14 14 16 17 18 19 18 18 18 18 17 17 17 17 15 14 13 13 12 11 11 10 9
19 19 18 18 15 15 13 12 14 13 13 12 12 12 12 11 11 11 11 11 11 11 11 12 12 12 14 15 15 17 18 18 19 19 19 19 19 19 18 17 16 15 15 14 13 13 12 11 11
21 20 18 17 16 15 14 12 14 14 13 13 13 12 12 12 11 12 11 10 11 11 12 13 13 13 14 15 14 15 16 17 19 20 20 20 20 20 20 19 18 16 15 14 14 14 14 13 12
22 20 18 17 16 15 15 12 12 13 13 12 12 12 12 11 11 11 11 11 11 12 12 12 13 13 13 13 14 14 15 17 18 19 20 20 20 21 21 21 20 18 17 15 15 16 15 15 14
21 19 18 17 16 15 15 13 12 13 12 12 12 12 12 12 11 11 11 11 12 12 12 12 12 13 13 13 13 14 15 15 17 19 19 20 20 21 21 22 21 20 19 17 17 17 17 16 16
20 19 18 15 14 15 16 13 13 12 11 11 11 11 12 12 12 11 11 11 12 12 12 13 12 12 13 13 14 15 15 15 16 17 18 19 20 20 21 22 22 22 21 19 19 18 18 18 18
22 21 19 17 16 14 15 14 13 12 12 11 10 10 11 11 12 12 11 12 13 12 12 12 11 12 13 13 14 15 15 15 16 17 18 18 19 20 21 22 22 22 21 21 21 20 20 20 20
23 21 21 18 16 14 14 13 12 12 12 12 11 11 11 11 11 12 12 13 14 14 13 13 12 12 12 12 13 14 14 14 14 16 17 18 18 20 21 22 23 22 22 22 22 22 21 21 22
22 22 20 18 17 13 11 12 14 13 13 13 12 11 11 11 11 11 12 12 13 13 13 13 13 13 13 12 12 13 14 14 15 15 16 17 18 19 21 22 23 23 23 23 23 23 23 23 23
22 21 20 18 17 15 12 13 14 14 14 14 13 12 12 12 12 12 11 11 11 12 12 13 14 14 13 13 12 12 14 14 14 15 16 16 18 19 20 21 22 23 24 24 24 24 25 24 24
Wind_Direction
66 66 69 71 74 72 72 77 81 81 82 85 90 91 91 94 102 112 116 121 126 128 129 133 138 142 142 140 138 134 127 123 118 113 109 105 100 95 91 91 92 94 96 96 97 100 101 101 99
63 68 72 72 74 75 70 75 77 78 79 83 86 89 89 89 96 106 118 126 135 138 136 138 144 150 151 147 141 136 131 127 122 117 112 107 102 97 94 93 94 96 98 98 100 104 105 106 105
61 68 70 70 74 89 85 76 74 76 75 78 79 83 84 84 89 99 114 129 140 145 146 145 148 155 159 154 147 142 137 132 126 121 115 111 106 101 97 97 97 97 98 98 101 106 107 108 108
53 64 69 69 69 79 86 73 67 68 66 73 73 75 78 85 84 92 109 135 146 150 153 155 156 158 160 157 152 149 143 138 133 127 121 116 112 106 104 103 101 99 99 99 102 109 110 110 112
41 55 67 68 70 67 71 63 50 56 54 60 61 64 73 83 90 98 108 132 152 157 159 163 167 168 164 161 158 155 149 144 140 134 127 121 116 112 109 107 106 104 103 102 104 109 111 115 121
26 43 68 82 43 43 44 37 41 46 40 41 48 57 59 75 80 98 111 128 151 167 170 174 175 177 173 168 165 161 156 150 147 141 134 126 120 117 115 113 111 107 105 106 102 104 111 120 130
351 18 66 265 314 323 345 3 10 18 20 27 39 47 43 45 60 86 96 120 136 169 186 188 185 181 178 174 172 168 162 158 154 149 143 136 129 124 120 120 119 111 102 100 100 103 108 115 132
317 326 311 299 291 282 317 333 335 347 351 4 22 29 23 45 60 65 80 116 135 183 204 205 197 192 185 181 178 175 170 165 162 157 151 145 138 131 124 125 125 115 107 104 101 103 110 111 128
294 291 272 272 267 279 298 321 329 331 323 336 347 349 339 346 12 27 10 53 208 219 219 217 208 201 194 190 187 184 180 176 173 169 162 155 148 139 132 130 130 123 117 107 97 94 106 115 125
280 271 264 262 262 273 280 296 308 307 306 309 321 324 314 311 317 319 311 295 268 251 237 230 217 208 204 200 197 193 189 186 181 178 175 168 157 146 141 138 137 134 125 110 101 96 97 102 115
273 267 266 262 261 265 275 283 289 287 288 300 301 306 296 289 309 315 298 271 271 261 246 231 221 216 210 207 203 199 197 195 191 187 187 185 174 166 159 151 146 147 139 123 111 103 102 108 118
266 266 266 261 260 264 272 278 276 274 281 287 291 293 293 293 298 303 288 271 272 260 245 235 223 218 212 209 206 204 205 206 202 197 197 198 194 191 186 176 168 163 156 142 126 114 107 112 128
261 262 264 263 260 261 266 270 272 269 269 277 283 282 292 293 295 298 288 282 275 266 253 241 226 224 218 213 209 208 209 211 209 206 205 208 208 207 205 199 192 187 182 178 169 146 135 135 152
259 259 262 262 263 261 263 266 264 262 268 274 280 283 287 290 291 289 286 278 269 266 257 247 230 226 225 219 214 212 211 214 213 212 214 217 217 213 210 212 212 209 204 197 192 190 188 180 177
256 257 259 261 263 262 262 262 261 263 266 272 277 280 284 283 283 282 283 275 262 257 256 250 235 232 230 223 220 217 216 217 218 218 220 223 221 218 214 219 218 215 209 200 196 201 206 212 191
253 254 257 261 263 262 261 262 264 268 267 271 275 277 279 276 276 277 276 272 264 261 262 254 245 238 234 229 224 221 221 223 224 224 226 229 225 223 221 221 222 219 214 210 211 215 219 221 218
249 250 252 261 261 262 259 258 264 271 270 269 271 273 274 273 276 276 269 268 263 263 265 256 248 242 239 232 227 227 227 229 230 231 233 234 230 225 224 226 224 223 221 221 223 222 220 224 231
246 245 249 256 258 259 259 260 260 265 266 267 269 270 273 272 273 277 273 263 264 267 267 262 251 243 240 234 233 233 233 234 235 236 238 239 233 228 225 224 223 225 226 227 229 227 224 229 234
241 242 245 251 255 256 259 261 260 260 262 265 268 269 270 268 263 269 274 270 270 270 268 261 252 245 243 240 240 239 239 239 238 238 239 236 229 228 226 223 222 223 227 230 231 229 227 230 231
240 240 244 251 253 254 257 260 262 263 261 263 267 268 268 268 262 266 272 270 269 271 270 264 252 248 248 244 246 244 244 242 243 242 243 238 229 227 227 226 225 225 228 231 232 231 231 232 233
239 238 242 249 253 254 256 262 262 264 264 263 263 263 266 269 262 261 268 271 272 270 271 264 254 253 255 251 248 247 246 246 247 245 240 234 230 228 226 225 225 226 231 234 233 232 232 234 235
237 238 241 247 249 253 252 255 264 263 265 265 263 261 263 269 269 267 272 270 270 269 269 264 257 261 260 260 254 252 252 248 245 241 236 233 232 228 226 226 227 229 232 237 238 235 233 233 235
234 236 240 244 246 248 253 250 261 262 263 264 264 264 266 271 272 273 273 270 269 269 270 266 263 263 264 259 256 257 254 249 245 240 237 234 233 231 228 228 229 231 235 238 238 235 235 235 238
232 234 238 242 245 247 251 251 254 259 260 260 264 265 267 268 267 268 268 268 269 269 269 266 265 265 263 257 259 263 261 252 246 242 238 235 233 232 230 230 230 232 235 238 238 237 236 237 240
230 230 233 237 242 245 250 246 243 251 255 261 262 262 261 264 264 263 263 268 274 273 267 265 263 263 263 263 262 265 264 255 248 242 240 236 234 234 232 230 232 234 236 238 240 239 238 240 242
228 226 225 228 238 244 250 243 246 248 252 258 262 261 260 261 261 263 266 269 272 272 267 262 260 261 264 264 264 264 262 256 251 247 242 236 236 235 232 231 232 235 238 239 242 242 242 243 245
225 222 221 226 230 234 248 247 247 245 247 253 257 258 256 260 258 261 265 267 269 270 266 262 257 261 263 261 264 261 257 253 250 247 241 237 237 237 234 232 234 237 240 242 243 243 245 247 247
222 222 222 221 227 230 246 249 244 242 241 246 253 258 259 262 258 256 265 268 265 265 263 257 257 259 261 262 265 257 252 252 254 246 242 243 242 240 237 237 238 239 243 243 243 244 247 248 249
224 223 224 221 222 221 238 250 244 240 239 243 249 253 258 260 259 259 263 268 265 265 259 253 256 258 259 262 263 256 252 255 255 249 246 245 242 241 241 242 242 242 243 244 244 246 248 250 251
220 222 223 223 227 222 223 244 246 241 241 243 248 252 256 259 259 261 263 266 268 266 261 258 258 257 257 261 261 260 256 256 255 250 248 247 243 242 244 243 243 242 242 243 246 249 250 253 254
Height
5895 5895 5895 5896 5897 5897 5897 5896 5895 5894 5893 5892 5891 5891 5891 5892 5893 5895 5893 5891 5892 5892 5892 5892 5893 5894 5894 5895 5895 5896 5896 5896 5896 5896 5897 5897 5897 5897 5897 5897 5897 5897 5898 5898 5898 5898 5898 5897 5897
5896 5896 5897 5897 5898 5899 5898 5897 5896 5895 5894 5893 5892 5892 5892 5891 5892 5892 5891 5892 5892 5892 5892 5893 5893 5894 5895 5895 5896 5896 5896 5897 5897 5897 5897 5898 5898 5898 5898 5898 5898 5898 5898 5898 5898 5898 5898 5898 5898
5896 5896 5898 5898 5899 5900 5899 5898 5897 5895 5894 5894 5893 5892 5892 5892 5892 5892 5892 5892 5892 5893 5893 5893 5894 5894 5895 5896 5896 5896 5897 5897 5897 5897 5898 5898 5898 5898 5899 5899 5899 5899 5899 5899 5899 5899 5899 5899 5899
5896 5897 5898 5899 5899 5899 5898 5898 5897 5896 5895 5894 5893 5893 5892 5892 5892 5892 5892 5892 5892 5893 5893 5893 5894 5895 5895 5896 5896 5897 5897 5897 5898 5898 5898 5899 5899 5899 5899 5900 5900 5900 5900 5900 5899 5899 5899 5899 5899
5896 5897 5898 5899 5899 5898 5898 5897 5897 5896 5896 5895 5894 5893 5892 5892 5892 5892 5892 5892 5892 5892 5893 5893 5894 5895 5895 5896 5897 5897 5898 5898 5898 5899 5899 5899 5900 5900 5900 5900 5900 5900 5900 5900 5900 5900 5900 5899 5899
5896 5897 5899 5899 5899 5898 5898 5897 5897 5897 5896 5895 5894 5894 5893 5892 5892 5892 5892 5892 5892 5892 5893 5893 5894 5894 5895 5896 5897 5897 5898 5898 5899 5899 5900 5900 5900 5900 5901 5901 5901 5901 5901 5901 5900 5900 5900 5900 5900
5897 5897 5898 5898 5898 5898 5898 5897 5897 5897 5896 5895 5894 5894 5893 5892 5891 5892 5892 5892 5892 5892 5893 5893 5893 5894 5895 5896 5897 5897 5898 5898 5899 5900 5900 5900 5900 5901 5901 5901 5901 5901 5901 5901 5901 5900 5900 5900 5900
5895 5897 5897 5897 5897 5898 5897 5897 5897 5897 5896 5895 5894 5894 5893 5892 5891 5891 5891 5891 5891 5892 5892 5892 5893 5893 5894 5895 5896 5897 5898 5899 5899 5900 5900 5900 5900 5901 5901 5901 5901 5901 5901 5901 5901 5901 5901 5900 5900
5893 5896 5896 5896 5896 5897 5896 5896 5896 5896 5895 5894 5894 5893 5893 5892 5891 5891 5891 5891 5891 5891 5891 5892 5892 5893 5894 5895 5896 5896 5897 5898 5899 5899 5900 5900 5901 5901 5901 5901 5901 5901 5901 5901 5901 5901 5901 5901 5901
5892 5894 5895 5895 5895 5895 5895 5896 5896 5895 5895 5894 5893 5892 5892 5891 5891 5890 5890 5890 5890 5890 5890 5891 5891 5892 5893 5894 5895 5896 5897 5897 5898 5899 5900 5900 5900 5901 5901 5901 5901 5901 5901 5902 5902 5902 5902 5901 5901
5890 5891 5892 5892 5893 5893 5894 5894 5895 5894 5894 5893 5892 5891 5891 5890 5890 5889 5889 5889 5889 5889 5889 5889 5890 5891 5892 5893 5894 5895 5896 5896 5897 5898 5899 5900 5900 5900 5901 5901 5901 5901 5901 5901 5902 5902 5902 5902 5902
5888 5888 5889 5890 5891 5892 5892 5892 5893 5893 5893 5892 5891 5891 5890 5889 5888 5888 5888 5888 5888 5888 5888 5888 5889 5889 5890 5891 5893 5894 5895 5896 5896 5897 5898 5899 5900 5900 5901 5901 5901 5901 5901 5901 5902 5902 5902 5902 5902
5885 5886 5887 5888 5889 5890 5890 5890 5891 5891 5891 5890 5890 5889 5889 5888 5887 5887 5886 5886 5886 5886 5886 5887 5887 5888 5889 5890 5891 5892 5894 5895 5895 5896 5897 5898 5899 5900 5900 5900 5901 5901 5901 5901 5901 5902 5902 5902 5902
5883 5883 5884 5885 5886 5887 5888 5888 5889 5889 5889 5889 5888 5888 5887 5886 5885 5885 5884 5884 5884 5884 5885 5885 5885 5886 5887 5888 5889 5891 5892 5893 5894 5895 5896 5897 5898 5899 5899 5900 5900 5901 5901 5901 5901 5902 5902 5902 5902
5880 5881 5882 5883 5884 5885 5886 5886 5887 5887 5887 5887 5886 5886 5885 5884 5883 5883 5882 5882 5882 5882 5882 5883 5883 5884 5885 5887 5888 5889 5890 5891 5892 5894 5895 5896 5897 5898 5898 5899 5900 5900 5900 5901 5901 5901 5902 5902 5902
5877 5879 5880 5880 5881 5882 5885 5886 5884 5884 5884 5884 5884 5883 5883 5882 5881 5881 5880 5880 5880 5880 5880 5880 5881 5882 5883 5885 5886 5887 5888 5890 5891 5892 5893 5894 5895 5896 5897 5898 5899 5899 5899 5900 5900 5901 5901 5901 5901
5874 5876 5877 5877 5878 5879 5881 5882 5882 5881 5882 5882 5882 5881 5880 5879 5878 5878 5877 5877 5877 5878 5878 5878 5879 5880 5881 5882 5884 5885 5886 5888 5889 5890 5891 5892 5893 5894 5895 5896 5897 5898 5899 5899 5899 5900 5900 5901 5901
5872 5873 5874 5874 5875 5876 5877 5878 5879 5878 5879 5879 5879 5878 5878 5877 5876 5875 5875 5875 5875 5875 5875 5875 5876 5877 5878 5879 5881 5883 5884 5885 5886 5887 5888 5890 5891 5892 5893 5894 5895 5896 5897 5898 5898 5899 5900 5900 5900
5867 5869 5870 5871 5871 5873 5874 5875 5875 5876 5876 5876 5876 5876 5875 5875 5874 5873 5873 5873 5873 5873 5873 5873 5873 5874 5876 5877 5878 5879 5881 5882 5883 5884 5885 5886 5887 5889 5890 5892 5893 5894 5895 5896 5897 5897 5898 5899 5899
5863 5865 5866 5867 5868 5870 5871 5872 5872 5873 5873 5873 5873 5873 5873 5872 5872 5871 5871 5871 5871 5870 5870 5870 5871 5871 5872 5874 5875 5876 5877 5878 5880 5881 5882 5883 5884 5886 5887 5889 5891 5892 5893 5894 5895 5896 5897 5897 5898
5859 5861 5863 5863 5865 5866 5868 5869 5870 5870 5870 5871 5871 5871 5870 5870 5869 5869 5869 5868 5868 5868 5867 5867 5868 5868 5869 5870 5871 5872 5874 5875 5876 5877 5878 5879 5881 5883 5884 5886 5888 5889 5891 5892 5892 5894 5895 5896 5896
5854 5856 5858 5860 5862 5864 5866 5868 5867 5867 5867 5868 5868 5868 5867 5867 5867 5867 5866 5866 5865 5865 5865 5864 5865 5865 5867 5867 5868 5869 5870 5871 5872 5873 5874 5875 5877 5879 5881 5883 5885 5886 5888 5889 5890 5891 5892 5893 5894
5850 5852 5854 5856 5859 5861 5862 5865 5866 5863 5864 5864 5864 5864 5864 5864 5864 5864 5863 5863 5863 5862 5862 5862 5862 5862 5863 5864 5865 5865 5866 5867 5867 5868 5870 5871 5874 5876 5878 5880 5882 5884 5885 5886 5887 5888 5889 5891 5892
5845 5849 5851 5853 5856 5858 5859 5861 5863 5861 5860 5861 5861 5860 5860 5861 5861 5861 5860 5860 5860 5860 5859 5859 5859 5860 5860 5861 5861 5862 5862 5862 5863 5864 5866 5868 5870 5872 5874 5876 5878 5880 5882 5883 5884 5885 5887 5888 5889
5842 5846 5849 5851 5853 5855 5855 5857 5859 5857 5857 5857 5858 5857 5857 5857 5858 5858 5858 5857 5857 5856 5856 5856 5857 5857 5858 5858 5858 5858 5858 5858 5858 5860 5862 5864 5866 5868 5870 5872 5875 5876 5878 5879 5881 5882 5883 5884 5886
5838 5842 5847 5850 5852 5853 5851 5853 5855 5854 5854 5854 5855 5855 5854 5854 5854 5854 5855 5854 5854 5853 5853 5853 5854 5854 5855 5855 5854 5854 5854 5854 5855 5856 5858 5859 5862 5864 5866 5868 5870 5872 5874 5875 5877 5878 5879 5881 5882
5833 5837 5842 5846 5847 5850 5850 5850 5850 5851 5851 5851 5851 5852 5852 5852 5851 5852 5851 5851 5851 5850 5850 5850 5851 5851 5851 5851 5851 5850 5850 5851 5852 5853 5854 5856 5858 5860 5862 5864 5866 5868 5870 5871 5872 5874 5875 5877 5878
5830 5833 5836 5841 5843 5846 5847 5847 5848 5847 5848 5848 5848 5849 5849 5849 5849 5849 5848 5848 5847 5847 5847 5847 5847 5848 5848 5848 5848 5847 5848 5848 5849 5850 5851 5852 5854 5856 5858 5860 5862 5863 5865 5866 5868 5870 5871 5872 5873
5826 5829 5832 5836 5840 5843 5846 5847 5844 5844 5845 5845 5845 5845 5846 5846 5846 5845 5845 5844 5843 5843 5843 5843 5844 5844 5845 5845 5845 5844 5845 5845 5845 5846 5847 5848 5850 5851 5853 5855 5857 5858 5860 5862 5863 5865 5866 5867 5868
5821 5825 5829 5833 5835 5837 5841 5845 5840 5840 5841 5842 5842 5842 5843 5843 5843 5843 5842 5842 5841 5840 5840 5840 5841 5841 5842 5842 5842 5841 5841 5842 5842 5843 5844 5845 5846 5847 5849 5850 5852 5853 5855 5857 5858 5860 5861 5862 5862